EW5024 Weather Reports


Display with metric or nautical units.
time (UTC)temp
F
wind
direction
speed
MPH
gust
MPH
rain 1hr
in
rain 24hr
in
rain mn
in
humidity
%
barometer
mb
20260905114521 83 346 4.0 9.0 0.00 0.00 0.00 50 1016.7
20260905113007 84 360 4.0 10.0 0.00 0.00 0.00 50 1016.8
20260905111507 84 320 6.0 10.0 0.00 0.00 0.00 48 1016.8
20260905110002 84 333 4.0 10.0 0.00 0.00 0.00 49 1017.0
20260905104558 83 291 3.0 10.0 0.00 0.00 0.00 51 1017.1
20260905103055 82 340 3.0 6.0 0.00 0.00 0.00 53 1017.2
20260905101615 81 30 5.0 9.0 0.00 0.00 0.00 54 1017.3
20260905100051 80 306 4.0 9.0 0.00 0.00 0.00 54 1017.4
20260905094550 80 344 2.0 8.0 0.00 0.00 0.00 56 1017.6
20260905093046 79 29 2.0 8.0 0.00 0.00 0.00 58 1017.7
20260905091546 78 33 4.0 6.0 0.00 0.00 0.00 60 1017.8
20260905090041 76 293 2.0 6.0 0.00 0.00 0.00 63 1017.9
20260905084557 75 297 2.0 4.0 0.00 0.00 0.00 62 1017.9
20260905083033 75 300 1.0 5.0 0.00 0.00 0.00 64 1017.9
20260905081531 74 306 2.0 4.0 0.00 0.00 0.00 65 1017.9
20260905080029 73 342 4.0 6.0 0.00 0.00 0.00 67 1017.8
20260905074529 73 292 3.0 5.0 0.00 0.00 0.00 68 1017.8
20260905073027 72 272 2.0 5.0 0.00 0.00 0.00 69 1017.6
20260905071529 72 61 2.0 4.0 0.00 0.00 0.00 71 1017.7
20260905070026 71 300 1.0 4.0 0.00 0.00 0.00 72 1017.6
20260905064529 70 5 2.0 4.0 0.00 0.00 0.00 72 1017.5
20260905063027 70 338 1.0 3.0 0.00 0.00 0.00 75 1017.6
20260905061524 69 303 2.0 3.0 0.00 0.00 0.00 75 1017.7
20260905060026 67 300 0.0 1.0 0.00 0.00 0.00 79 1017.8
20260905054523 65 299 1.0 2.0 0.00 0.00 0.00 79 1017.8
20260905053022 65 299 0.0 2.0 0.00 0.00 0.00 79 1017.9
20260905051530 66 321 1.0 4.0 0.00 0.00 0.00 79 1017.7
20260905050019 65 300 0.0 2.0 0.00 0.00 0.00 79 1017.5
20260905044518 66 304 0.0 5.0 0.00 0.00 0.00 79 1017.4
20260905043018 66 324 0.0 3.0 0.00 0.00 0.00 79 1017.4
20260905041517 66 340 0.0 0.0 0.00 0.00 0.00 79 1017.3
20260905040014 66 340 0.0 2.0 0.00 0.00 0.00 78 1017.0
20260905034521 66 341 0.0 2.0 0.00 0.00 0.00 78 1017.2
20260905033010 67 340 0.0 3.0 0.00 0.00 0.00 78 1017.3
20260905031508 67 324 0.0 0.0 0.00 0.00 0.00 77 1017.5
20260905030021 67 324 0.0 2.0 0.00 0.00 0.00 78 1017.3
20260905024507 67 324 0.0 0.0 0.00 0.00 0.00 78 1017.4
20260905023016 68 324 0.0 0.0 0.00 0.00 0.00 77 1017.3
20260905021509 68 324 0.0 0.0 0.00 0.00 0.00 77 1017.3
20260905020004 68 325 0.0 0.0 0.00 0.00 0.00 77 1017.2
20260905014507 68 325 0.0 0.0 0.00 0.00 0.00 77 1017.1
20260905013108 68 336 0.0 0.0 0.00 0.00 0.00 76 1017.1
20260905011601 69 336 0.0 0.0 0.00 0.00 0.00 75 1017.1
20260905010101 69 336 0.0 3.0 0.00 0.00 0.00 74 1017.2
20260905004600 70 11 3.0 4.0 0.00 0.00 0.00 74 1017.2
20260905003154 70 261 0.0 0.0 0.00 0.00 0.00 74 1017.1
20260905001553 70 261 0.0 0.0 0.00 0.00 0.00 74 1017.1
20260905000051 70 263 0.0 0.0 0.00 0.00 0.00 74 1017.3
20260904234552 70 263 0.0 0.0 0.00 0.00 0.00 73 1017.2
20260904233059 71 263 0.0 0.0 0.00 0.00 0.00 72 1017.1
20260904231548 71 263 0.0 0.0 0.00 0.00 0.00 71 1017.2
20260904230045 72 255 0.0 0.0 0.00 0.00 0.00 71 1017.2
20260904224546 72 255 0.0 0.0 0.00 0.00 0.00 69 1017.2
20260904223042 73 256 0.0 0.0 0.00 0.00 0.00 68 1017.2
20260904221537 73 256 0.0 0.0 0.00 0.00 0.00 67 1017.2
20260904220036 74 255 0.0 3.0 0.00 0.00 0.00 66 1017.1
20260904214541 75 252 0.0 2.0 0.00 0.00 0.00 63 1017.1
20260904213033 75 252 1.0 3.0 0.00 0.00 0.00 62 1016.9
20260904211532 76 251 0.0 2.0 0.00 0.00 0.00 61 1016.9
20260904210035 77 251 0.0 3.0 0.00 0.00 0.00 58 1016.8
20260904204532 78 211 0.0 4.0 0.00 0.00 0.00 55 1016.9
20260904203033 80 184 1.0 4.0 0.00 0.00 0.00 53 1016.9
20260904201531 80 175 1.0 5.0 0.00 0.00 0.00 51 1016.9
20260904200034 80 222 2.0 4.0 0.00 0.00 0.00 51 1016.9
20260904194530 82 222 0.0 4.0 0.00 0.00 0.00 49 1016.8
20260904193041 83 103 6.0 11.0 0.00 0.00 0.00 46 1016.7
20260904191529 83 104 5.0 11.0 0.00 0.00 0.00 46 1016.6
20260904190026 85 119 5.0 13.0 0.00 0.00 0.00 44 1016.5
20260904184526 86 174 6.0 12.0 0.00 0.00 0.00 42 1016.4
20260904183025 86 168 7.0 16.0 0.00 0.00 0.00 41 1016.1
20260904181524 86 170 10.0 21.0 0.00 0.00 0.00 42 1015.9
20260904180023 86 159 11.0 23.0 0.00 0.00 0.00 42 1015.6
20260904174528 87 208 12.0 25.0 0.00 0.00 0.00 41 1015.5
20260904173025 87 157 15.0 29.0 0.00 0.00 0.00 40 1015.5
20260904171524 87 226 13.0 23.0 0.00 0.00 0.00 41 1015.5
20260904170021 87 210 13.0 30.0 0.00 0.00 0.00 41 1015.5
20260904164521 87 235 10.0 25.0 0.00 0.00 0.00 42 1015.5
20260904163024 87 187 12.0 29.0 0.00 0.00 0.00 41 1015.5
20260904161519 87 216 14.0 28.0 0.00 0.00 0.00 41 1015.4
20260904160016 87 235 13.0 27.0 0.00 0.00 0.00 42 1015.5
20260904154516 88 221 12.0 25.0 0.00 0.00 0.00 42 1015.6
20260904153015 88 209 13.0 26.0 0.00 0.00 0.00 41 1015.6
20260904151515 89 186 13.0 27.0 0.00 0.00 0.00 39 1015.7
20260904150014 89 194 12.0 22.0 0.00 0.00 0.00 39 1015.7
20260904144510 90 209 13.0 21.0 0.00 0.00 0.00 39 1015.8
20260904143012 90 203 12.0 23.0 0.00 0.00 0.00 38 1015.9
20260904141508 90 196 11.0 25.0 0.00 0.00 0.00 38 1016.2
20260904140006 90 202 11.0 21.0 0.00 0.00 0.00 38 1016.3
20260904134504 90 210 13.0 22.0 0.00 0.00 0.00 38 1016.4
20260904133002 91 211 10.0 19.0 0.00 0.00 0.00 38 1016.6
20260904131636 91 167 11.0 20.0 0.00 0.00 0.00 38 1016.7
20260904130057 91 155 11.0 24.0 0.00 0.00 0.00 38 1017.0
20260904124554 90 173 10.0 18.0 0.00 0.00 0.00 39 1017.2
20260904123104 87 292 3.0 5.0 0.00 0.00 0.00 39 1017.5
20260904121548 86 266 2.0 7.0 0.00 0.00 0.00 39 1017.8
20260904120045 87 304 3.0 5.0 0.00 0.00 0.00 39 1018.0